Flag for China Weather past 2 weeks in Suzhou, Jiangsu, China

Now
55 °F

Clear.


Feels Like: 55 °F
Forecast: 52 / 72 °F
Wind: 1 mph from Southeast

Location: Shanghai Hongqiao Airport

Current Time: Mar 29, 2015 at 1:03:15 AM

Latest Report: Mar 29, 2015 at 12:30 AM


Visibility: 4 mi

Pressure: 30.04 "Hg

Humidity: 82%

Dew point: 50 °F

Location of SuzhouLocation

Historic Weather in Suzhou — Graph

°F

Suzhou temperature yesterday

Maximum temperature yesterday: 70 °F (at 4:00 PM)
Minimum temperature yesterday: 50 °F (at 1:00 AM)
Average temperature yesterday: 59 °F

Past Weeks' High & Low Weather Summary

 TemperatureHumidityPressure
High73 °F (Mar 17, 1:30 PM)100% (Mar 16, 7:00 AM)30.57 "Hg (Mar 16, 7:00 AM)
Low46 °F (Mar 25, 5:30 AM)17% (Mar 22, 6:00 PM)29.62 "Hg (Mar 18, 4:00 AM)
Average56 °F73%30.17 "Hg
* Reported Midnight between Mar 13 and Mar 14 — Midnight between Mar 28 and Mar 29, Suzhou, Weather by CustomWeather, © 2015

Note: Actual official high and low records may vary slightly from our data, if they occured in-between our weather recording intervals... More about our weather records

Advertising

Suzhou weather history for previous 24 hours

 ConditionsComfort  
Time TempWeatherWind HumidityBarometerVisibility
12:00 AM
Sun, Mar 29
55 °FClear.3 mph82%30.04 "Hg4 mi
11:30 PM
Sat, Mar 28
55 °FClear.3 mph82%30.04 "Hg4 mi
11:00 PM55 °FClear.3 mph82%30.04 "Hg4 mi
10:30 PM57 °FFog.6 mph82%30.04 "Hg3 mi
10:00 PM57 °FFog.6 mph88%30.07 "Hg3 mi
9:30 PM57 °FFog.6 mph88%30.07 "Hg3 mi
9:00 PM59 °FFog.3 mph82%30.07 "Hg3 mi
8:30 PM59 °FFog.6 mph82%30.04 "Hg3 mi
8:00 PM59 °FClear.3 mph82%30.04 "Hg4 mi
7:30 PM61 °FClear.6 mph77%30.04 "Hg4 mi
7:00 PM63 °FClear.6 mph73%30.01 "Hg5 mi
6:30 PM64 °FClear.3 mph60%30.01 "Hg5 mi
6:00 PM66 °FPassing clouds.3 mph56%29.98 "HgN/A
5:30 PM66 °FSunny.6 mph52%30.01 "Hg10 mi
5:00 PM68 °FSunny.6 mph53%29.98 "Hg10 mi
4:30 PM68 °FClear.6 mph53%29.98 "Hg4 mi
4:00 PM70 °FClear.3 mph46%29.98 "Hg4 mi
3:30 PM68 °FClear.3 mph53%30.01 "Hg4 mi
3:00 PM68 °FClear.6 mph53%30.01 "Hg4 mi
2:30 PM66 °FClear.6 mph56%30.01 "Hg4 mi
2:00 PM68 °FClear.6 mph53%30.04 "Hg4 mi
1:30 PM68 °FClear.6 mph53%30.04 "Hg4 mi
1:00 PM68 °FScattered clouds.6 mph53%30.07 "Hg4 mi
12:30 PM66 °FPartly sunny.3 mph60%30.07 "Hg4 mi
12:00 PM66 °FPartly sunny.8 mph60%30.09 "Hg4 mi
11:30 AM64 °FPartly sunny.8 mph64%30.09 "Hg4 mi
11:00 AM63 °FPartly sunny.8 mph68%30.12 "Hg5 mi
10:30 AM63 °FPartly sunny.6 mph68%30.12 "Hg5 mi
10:00 AM61 °FPartly sunny.8 mph68%30.15 "Hg4 mi
9:30 AM59 °FPartly sunny.8 mph72%30.15 "Hg4 mi
9:00 AM57 °FPartly sunny.6 mph77%30.15 "Hg4 mi
8:30 AM57 °FScattered clouds.6 mph72%30.15 "Hg5 mi
8:00 AM55 °FPassing clouds.3 mph77%30.15 "Hg5 mi
7:30 AM54 °FPartly sunny.3 mph82%30.15 "Hg4 mi
7:00 AM52 °FPartly sunny.3 mph88%30.15 "Hg4 mi
6:30 AM52 °FPartly sunny.3 mph88%30.15 "Hg4 mi
6:00 AM52 °FPartly sunny.1 mph88%30.15 "Hg4 mi
5:30 AM52 °FPassing clouds.1 mph82%30.15 "HgN/A
5:00 AM50 °FPassing clouds.1 mph88%30.15 "HgN/A
4:30 AM50 °FPassing clouds.3 mph94%30.15 "HgN/A
4:00 AM50 °FPassing clouds.1 mph94%30.15 "HgN/A
3:30 AM50 °FPassing clouds.1 mph94%30.15 "HgN/A
3:00 AM50 °FPassing clouds.1 mph88%30.15 "HgN/A
2:30 AM50 °FPassing clouds.3 mph88%30.18 "HgN/A
2:00 AM50 °FPassing clouds.1 mph94%30.18 "HgN/A
1:30 AM50 °FPassing clouds.1 mph88%30.21 "HgN/A
1:00 AM50 °FClear.1 mph88%30.21 "Hg10 mi
Weather by CustomWeather, © 2015

See weather overviewHow to use our weather pages